Weather History for Two Harbors, MN

Change the Weather History Date:

Monday, November 19, 2012

  Actual Average Record
Temperature  
Mean Temperature 38 °F -  
Max Temperature 48 °F 37 °F 54 °F (1953)
Min Temperature 28 °F 25 °F 6 °F (1997)
Degree Days  
Heating Degree Days 27    
Moisture  
Dew Point 30 °F    
Average Humidity 79    
Maximum Humidity 87    
Minimum Humidity 66    
Precipitation  
Precipitation 0.01 in - - ()
Sea Level Pressure  
Sea Level Pressure 30.03 in    
Wind  
Wind Speed 1 mph (NNW)    
Max Wind Speed 5 mph    
Max Gust Speed -    
Visibility 9 miles    
Events Rain , Thunderstorm    
Averages and records for this station are not official NWS values.
T = Trace of Precipitation, MM = Missing Value Source: NWS Daily Summary

Daily Weather History Graph

Daily Weather History Graph

Search for Another Location

Airport:

Trip Planner

Search our weather history database for the weather conditions in past years. The results will help you decide how hot, cold, wet, or windy it might be!

Date:

Astronomy

Nov. 19, 2012 Rise Set
Actual Time 7:16 AM CST 4:27 PM CST
Civil Twilight 6:43 AM CST 5:01 PM CST
Nautical Twilight 6:05 AM CST 5:38 PM CST
Astronomical Twilight 5:29 AM CST 6:14 PM CST
Moon 12:11 PM CST (11/19) 11:05 PM CST (11/19)
Length of Visible Light 10h 17m
Length of Day
9h 10m
Waxing Crescent, 41% of the Moon is Illuminated
Nov 19
Waxing Crescent
Nov 20
First Quarter
Nov 28
Full
Dec 6
Last Quarter
Dec 13
New

Hourly Weather History & Observations

Time (CST) Temp. Windchill Dew Point Humidity Pressure Visibility Wind Dir Wind Speed Gust Speed Precip Events Conditions
12:11 AM 28.4 °F - 23.0 °F 80% 30.08 in 7.0 mi Calm Calm - N/A   Clear
12:31 AM 28.4 °F - 23.0 °F 80% 30.08 in 7.0 mi Calm Calm - N/A   Clear
12:52 AM 28.4 °F - 24.8 °F 86% 30.07 in 7.0 mi Calm Calm - N/A   Clear
1:11 AM 28.4 °F - 24.8 °F 86% 30.06 in 7.0 mi Calm Calm - N/A   Clear
1:31 AM 28.4 °F - 23.0 °F 80% 30.06 in 7.0 mi Calm Calm - N/A   Clear
1:51 AM 28.4 °F - 24.8 °F 86% 30.05 in 10.0 mi Calm Calm - N/A   Clear
2:11 AM 28.4 °F - 24.8 °F 86% 30.05 in 7.0 mi Calm Calm - N/A   Clear
2:31 AM 28.4 °F - 23.0 °F 80% 30.05 in 7.0 mi Calm Calm - N/A   Clear
2:51 AM 28.4 °F - 23.0 °F 80% 30.05 in 7.0 mi Calm Calm - N/A   Clear
3:11 AM 30.2 °F - 26.6 °F 86% 30.05 in 10.0 mi Calm Calm - N/A   Scattered Clouds
3:31 AM 32.0 °F - 26.6 °F 80% 30.05 in 10.0 mi Calm Calm - N/A   Mostly Cloudy
3:51 AM 32.0 °F - 26.6 °F 80% 30.05 in 10.0 mi Calm Calm - N/A   Mostly Cloudy
4:11 AM 32.0 °F - 26.6 °F 80% 30.04 in 10.0 mi Calm Calm - N/A   Drizzle
4:31 AM 32.0 °F - 26.6 °F 80% 30.04 in 10.0 mi Calm Calm - N/A   Scattered Clouds
4:51 AM 32.0 °F - 26.6 °F 80% 30.04 in 10.0 mi Calm Calm - N/A   Clear
5:11 AM 33.8 °F - 28.4 °F 81% 30.04 in 10.0 mi Calm Calm - N/A   Clear
5:31 AM 28.4 °F - 24.8 °F 86% 30.04 in 7.0 mi Calm Calm - N/A   Clear
5:51 AM 28.4 °F - 24.8 °F 86% 30.04 in 7.0 mi Calm Calm - N/A   Clear
6:11 AM 33.8 °F 30.8 °F 28.4 °F 81% 30.04 in 10.0 mi NNE 3.5 mph - N/A   Clear
6:31 AM 28.4 °F - 24.8 °F 86% 30.03 in 7.0 mi Calm Calm - N/A   Clear
6:51 AM 30.2 °F 26.7 °F 24.8 °F 80% 30.04 in 7.0 mi NNE 3.5 mph - N/A   Clear
7:11 AM 30.2 °F 25.4 °F 24.8 °F 80% 30.04 in 7.0 mi North 4.6 mph - N/A   Clear
7:31 AM 32.0 °F 27.5 °F 26.6 °F 80% 30.05 in 10.0 mi North 4.6 mph - N/A   Clear
7:51 AM 28.4 °F - 24.8 °F 86% 30.04 in 5.0 mi Calm Calm - N/A   Haze
8:11 AM 33.8 °F - 28.4 °F 81% 30.05 in 7.0 mi Calm Calm - N/A Thunderstorm Overcast
8:31 AM 33.8 °F - 28.4 °F 81% 30.04 in 7.0 mi Calm Calm - N/A   Overcast
8:51 AM 33.8 °F - 28.4 °F 81% 30.04 in 10.0 mi Calm Calm - N/A   Overcast
9:11 AM 37.4 °F - 33.8 °F 87% 30.04 in 10.0 mi Calm Calm - N/A   Overcast
9:31 AM 41.0 °F 39.0 °F 33.8 °F 76% 30.04 in 10.0 mi North 3.5 mph - N/A   Overcast
9:52 AM 42.8 °F - 33.8 °F 70% 30.04 in 10.0 mi Calm Calm - N/A   Overcast
10:11 AM 44.6 °F - 35.6 °F 71% 30.04 in 10.0 mi Calm Calm - N/A   Scattered Clouds
10:31 AM 44.6 °F - 35.6 °F 71% 30.04 in 10.0 mi Calm Calm - N/A   Mostly Cloudy
10:51 AM 44.6 °F - 35.6 °F 71% 30.03 in 10.0 mi Calm Calm - N/A   Overcast
11:11 AM 44.6 °F - 35.6 °F 71% 30.03 in 10.0 mi Calm Calm - N/A   Overcast
11:31 AM 44.6 °F - 35.6 °F 71% 30.02 in 10.0 mi Calm Calm - N/A   Overcast
11:51 AM 42.8 °F - 37.4 °F 81% 30.02 in 10.0 mi Calm Calm - 0.01 in   Overcast
12:11 PM 44.6 °F - 37.4 °F 76% 30.01 in 10.0 mi Calm Calm - N/A   Overcast
12:31 PM 44.6 °F - 37.4 °F 76% 30.01 in 10.0 mi Calm Calm - N/A Rain Light Rain
12:52 PM 44.6 °F - 37.4 °F 76% 30.00 in 10.0 mi Calm Calm - N/A   Overcast
1:11 PM 44.6 °F 43.1 °F 37.4 °F 76% 30.00 in 10.0 mi NNE 3.5 mph - N/A   Overcast
1:31 PM 46.4 °F - 37.4 °F 71% 30.00 in 10.0 mi Calm Calm - N/A   Overcast
1:51 PM 46.4 °F 45.2 °F 37.4 °F 71% 29.99 in 10.0 mi ENE 3.5 mph - N/A   Overcast
2:11 PM 46.4 °F 45.2 °F 37.4 °F 71% 29.99 in 10.0 mi ENE 3.5 mph - N/A   Overcast
2:31 PM 46.4 °F - 37.4 °F 71% 30.00 in 10.0 mi Calm Calm - N/A   Overcast
2:51 PM 46.4 °F - 37.4 °F 71% 29.99 in 10.0 mi Calm Calm - N/A   Overcast
3:11 PM 48.2 °F - 37.4 °F 66% 29.99 in 10.0 mi Calm Calm - N/A   Overcast
3:31 PM 46.4 °F - 35.6 °F 66% 29.99 in 10.0 mi Calm Calm - N/A   Mostly Cloudy
3:51 PM 44.6 °F - 35.6 °F 71% 30.00 in 10.0 mi Calm Calm - N/A   Scattered Clouds
4:12 PM 44.6 °F - 35.6 °F 71% 30.00 in 10.0 mi Calm Calm - N/A   Mostly Cloudy
4:31 PM 42.8 °F - 35.6 °F 76% 30.00 in 10.0 mi Calm Calm - N/A   Overcast
4:51 PM 42.8 °F 41.1 °F 35.6 °F 76% 30.01 in 10.0 mi NNW 3.5 mph - N/A   Mostly Cloudy
5:12 PM 39.2 °F - 33.8 °F 81% 30.01 in 10.0 mi Calm Calm - N/A   Scattered Clouds
5:31 PM 37.4 °F - 33.8 °F 87% 30.01 in 10.0 mi Calm Calm - N/A   Clear
5:51 PM 37.4 °F 34.9 °F 32.0 °F 81% 30.01 in 10.0 mi NW 3.5 mph - N/A   Clear
6:12 PM 35.6 °F - 30.2 °F 81% 30.01 in 10.0 mi Calm Calm - N/A   Clear
6:31 PM 35.6 °F 31.7 °F 30.2 °F 81% 30.01 in 10.0 mi WNW 4.6 mph - N/A   Clear
6:51 PM 35.6 °F 32.8 °F 30.2 °F 81% 30.01 in 10.0 mi WNW 3.5 mph - N/A   Clear
7:12 PM 32.0 °F 28.7 °F 26.6 °F 80% 30.01 in 10.0 mi WNW 3.5 mph - N/A   Clear
7:31 PM 33.8 °F - 28.4 °F 81% 30.01 in 10.0 mi Calm Calm - N/A   Clear
7:51 PM 30.2 °F - 26.6 °F 86% 30.01 in 10.0 mi Calm Calm - N/A   Clear
8:10 PM 30.2 °F - 26.6 °F 86% 30.01 in 10.0 mi Calm Calm - N/A   Clear
8:31 PM 30.2 °F - 26.6 °F 86% 30.01 in 10.0 mi Calm Calm - N/A   Clear
9:11 PM 30.2 °F - 26.6 °F 86% 30.00 in 10.0 mi Calm Calm - N/A   Clear
9:31 PM 32.0 °F 27.5 °F 26.6 °F 80% 30.01 in 10.0 mi WSW 4.6 mph - N/A   Clear
9:51 PM 33.8 °F - 28.4 °F 81% 30.01 in 10.0 mi Calm Calm - N/A   Clear
10:11 PM 35.6 °F 31.7 °F 28.4 °F 75% 30.01 in 10.0 mi WNW 4.6 mph - N/A   Clear
10:31 PM 39.2 °F 35.9 °F 33.8 °F 81% 30.01 in 10.0 mi NW 4.6 mph - N/A   Clear
10:51 PM 39.2 °F 35.9 °F 33.8 °F 81% 30.02 in 10.0 mi WNW 4.6 mph - N/A   Clear
11:12 PM 39.2 °F - 33.8 °F 81% 30.02 in 10.0 mi Calm Calm - N/A   Clear
11:31 PM 37.4 °F - 32.0 °F 81% 30.02 in 10.0 mi Calm Calm - N/A   Clear
11:51 PM 37.4 °F 34.9 °F 32.0 °F 81% 30.02 in 10.0 mi NW 3.5 mph - N/A   Clear